| time (UTC) | temp F | wind direction | speed knots | gust knots | rain 1hr in | rain 24hr in | rain mn in | humidity % | barometer mb |
| 20260903044520 | 84 | 150 | 1.7 | 4.3 | 0.00 | 0.00 | 0.00 | 84 | 1016.3 |
| 20260903043019 | 84 | 169 | 0.9 | 3.5 | 0.00 | 0.00 | 0.00 | 83 | 1016.4 |
| 20260903041521 | 85 | 155 | 0.9 | 5.2 | 0.00 | 0.00 | 0.00 | 82 | 1016.3 |
| 20260903040014 | 85 | 156 | 1.7 | 6.1 | 0.00 | 0.00 | 0.00 | 82 | 1016.3 |
| 20260903034522 | 85 | 151 | 1.7 | 5.2 | 0.00 | 0.00 | 0.00 | 81 | 1016.3 |
| 20260903033011 | 85 | 132 | 1.7 | 5.2 | 0.00 | 0.00 | 0.00 | 81 | 1016.4 |
| 20260903031507 | 86 | 178 | 0.0 | 2.6 | 0.00 | 0.00 | 0.00 | 81 | 1016.4 |
| 20260903030009 | 86 | 168 | 0.0 | 2.6 | 0.00 | 0.00 | 0.00 | 81 | 1016.3 |
| 20260903024506 | 86 | 134 | 0.0 | 1.7 | 0.00 | 0.00 | 0.00 | 80 | 1016.4 |
| 20260903023003 | 87 | 175 | 0.0 | 4.3 | 0.00 | 0.00 | 0.00 | 80 | 1016.2 |
| 20260903021501 | 87 | 182 | 0.0 | 1.7 | 0.00 | 0.00 | 0.00 | 79 | 1016.3 |
| 20260903020059 | 87 | 154 | 0.9 | 4.3 | 0.00 | 0.00 | 0.00 | 79 | 1016.1 |
| 20260903014556 | 87 | 165 | 0.0 | 2.6 | 0.00 | 0.00 | 0.00 | 79 | 1015.9 |
| 20260903013055 | 88 | 155 | 0.0 | 1.7 | 0.00 | 0.00 | 0.00 | 78 | 1015.6 |
| 20260903011604 | 88 | 165 | 0.0 | 2.6 | 0.00 | 0.00 | 0.00 | 78 | 1015.5 |
| 20260903010051 | 89 | 217 | 0.0 | 1.7 | 0.00 | 0.00 | 0.00 | 77 | 1015.4 |
| 20260903004548 | 89 | 175 | 0.0 | 0.0 | 0.00 | 0.00 | 0.00 | 76 | 1015.4 |
| 20260903003047 | 91 | 175 | 0.0 | 0.9 | 0.00 | 0.00 | 0.00 | 73 | 1015.3 |
| 20260903001546 | 92 | 163 | 0.0 | 1.7 | 0.00 | 0.00 | 0.00 | 71 | 1015.2 |
| 20260903000043 | 94 | 171 | 0.9 | 2.6 | 0.00 | 0.00 | 0.00 | 68 | 1015.2 |
| 20260902234545 | 95 | 191 | 0.0 | 2.6 | 0.00 | 0.00 | 0.00 | 65 | 1015.2 |
| 20260902233049 | 96 | 167 | 0.0 | 4.3 | 0.00 | 0.00 | 0.00 | 63 | 1015.2 |
| 20260902231550 | 97 | 153 | 0.0 | 2.6 | 0.00 | 0.00 | 0.00 | 61 | 1015.2 |
| 20260902230035 | 97 | 249 | 0.9 | 4.3 | 0.00 | 0.00 | 0.00 | 61 | 1015.2 |
| 20260902224539 | 98 | 251 | 0.9 | 6.1 | 0.00 | 0.00 | 0.00 | 60 | 1015.2 |
| 20260902223030 | 99 | 208 | 2.6 | 6.1 | 0.00 | 0.00 | 0.00 | 58 | 1015.3 |
| 20260902221529 | 99 | 170 | 0.0 | 6.1 | 0.00 | 0.00 | 0.00 | 57 | 1015.2 |
| 20260902220028 | 99 | 194 | 2.6 | 6.1 | 0.00 | 0.00 | 0.00 | 58 | 1015.4 |
| 20260902214529 | 99 | 235 | 2.6 | 7.0 | 0.00 | 0.00 | 0.00 | 58 | 1015.2 |
| 20260902213024 | 98 | 182 | 0.0 | 7.0 | 0.00 | 0.00 | 0.00 | 61 | 1015.5 |
| 20260902211529 | 99 | 204 | 1.7 | 7.8 | 0.00 | 0.00 | 0.00 | 60 | 1015.8 |
| 20260902210020 | 99 | 26 | 0.0 | 6.1 | 0.00 | 0.00 | 0.00 | 59 | 1015.8 |
| 20260902204518 | 99 | 199 | 1.7 | 7.8 | 0.00 | 0.00 | 0.00 | 60 | 1016.0 |
| 20260902203016 | 99 | 163 | 0.9 | 6.1 | 0.00 | 0.00 | 0.00 | 58 | 1016.1 |
| 20260902201512 | 99 | 238 | 0.9 | 5.2 | 0.00 | 0.00 | 0.00 | 59 | 1016.3 |
| 20260902200008 | 99 | 327 | 1.7 | 7.0 | 0.00 | 0.00 | 0.00 | 59 | 1016.6 |
| 20260902194507 | 98 | 220 | 0.9 | 4.3 | 0.00 | 0.00 | 0.00 | 60 | 1016.7 |
| 20260902193101 | 98 | 276 | 0.0 | 6.1 | 0.00 | 0.00 | 0.00 | 62 | 1016.9 |
| 20260902191557 | 99 | 187 | 2.6 | 7.0 | 0.00 | 0.00 | 0.00 | 62 | 1017.0 |
| 20260902190051 | 98 | 340 | 2.6 | 6.1 | 0.00 | 0.00 | 0.00 | 62 | 1017.1 |
| 20260902184554 | 98 | 43 | 0.9 | 7.0 | 0.00 | 0.00 | 0.00 | 61 | 1017.2 |
| 20260902183042 | 96 | 348 | 1.7 | 5.2 | 0.00 | 0.00 | 0.00 | 67 | 1017.3 |
| 20260902181538 | 97 | 52 | 0.0 | 6.1 | 0.00 | 0.00 | 0.00 | 67 | 1017.4 |
| 20260902180029 | 97 | 229 | 0.9 | 4.3 | 0.00 | 0.00 | 0.00 | 67 | 1017.5 |
| 20260902174523 | 96 | 294 | 1.7 | 7.0 | 0.00 | 0.00 | 0.00 | 70 | 1017.7 |
| 20260902173018 | 95 | 334 | 2.6 | 8.7 | 0.00 | 0.00 | 0.00 | 71 | 1018.0 |
| 20260902171513 | 95 | 264 | 0.9 | 6.1 | 0.00 | 0.00 | 0.00 | 71 | 1018.3 |
| 20260902170006 | 95 | 262 | 0.9 | 5.2 | 0.00 | 0.00 | 0.00 | 72 | 1018.5 |
| 20260902164559 | 93 | 244 | 1.7 | 7.8 | 0.00 | 0.00 | 0.00 | 74 | 1018.6 |
| 20260902163102 | 93 | 7 | 0.9 | 7.8 | 0.00 | 0.00 | 0.00 | 73 | 1018.6 |
| 20260902161553 | 93 | 254 | 3.5 | 8.7 | 0.00 | 0.00 | 0.00 | 73 | 1018.7 |
| 20260902160041 | 93 | 145 | 1.7 | 5.2 | 0.00 | 0.00 | 0.00 | 73 | 1018.8 |
| 20260902154535 | 92 | 268 | 2.6 | 7.8 | 0.00 | 0.00 | 0.00 | 73 | 1018.9 |
| 20260902153029 | 91 | 28 | 2.6 | 7.0 | 0.00 | 0.00 | 0.00 | 73 | 1018.9 |
| 20260902151524 | 91 | 339 | 0.0 | 5.2 | 0.00 | 0.00 | 0.00 | 75 | 1018.7 |
| 20260902150018 | 90 | 303 | 0.9 | 6.1 | 0.00 | 0.00 | 0.00 | 75 | 1018.8 |
| 20260902144527 | 89 | 211 | 1.7 | 6.1 | 0.00 | 0.00 | 0.00 | 75 | 1018.8 |
| 20260902143015 | 88 | 225 | 2.6 | 6.1 | 0.00 | 0.00 | 0.00 | 77 | 1018.7 |
| 20260902141510 | 87 | 163 | 0.9 | 5.2 | 0.00 | 0.00 | 0.00 | 77 | 1018.9 |
| 20260902140001 | 85 | 244 | 1.7 | 5.2 | 0.00 | 0.00 | 0.00 | 79 | 1019.0 |
| 20260902134700 | 85 | 157 | 0.9 | 4.3 | 0.00 | 0.00 | 0.00 | 79 | 1019.1 |
| 20260902133054 | 84 | 261 | 0.0 | 1.7 | 0.00 | 0.00 | 0.00 | 79 | 1019.2 |
| 20260902131550 | 83 | 268 | 0.0 | 3.5 | 0.00 | 0.00 | 0.00 | 79 | 1019.2 |
| 20260902130053 | 81 | 265 | 0.0 | 2.6 | 0.00 | 0.00 | 0.00 | 79 | 1019.0 |
| 20260902124544 | 80 | 140 | 0.0 | 0.0 | 0.00 | 0.00 | 0.00 | 83 | 1019.2 |
| 20260902123047 | 76 | 140 | 0.0 | 0.0 | 0.00 | 0.00 | 0.00 | 86 | 1019.1 |
| 20260902121538 | 0 | 0.0 | 0.0 | 0.00 | 0.00 | 0.00 | 1019.0 | ||
| 20260902120035 | 0 | 0.0 | 0.0 | 0.00 | 0.00 | 0.00 | 1019.1 | ||
| 20260902114536 | 0 | 0.0 | 0.0 | 0.00 | 0.00 | 0.00 | 1018.8 | ||
| 20260902113034 | 0 | 0.0 | 0.0 | 0.00 | 0.00 | 0.00 | 1018.7 | ||
| 20260902111521 | 0 | 0.0 | 0.0 | 0.00 | 0.00 | 0.00 | 1018.5 | ||
| 20260902110012 | 0 | 0.0 | 0.0 | 0.00 | 0.00 | 0.00 | 1018.5 | ||
| 20260902104509 | 0 | 0.0 | 0.0 | 0.00 | 0.00 | 0.00 | 1018.4 | ||
| 20260902103004 | 0 | 0.0 | 0.0 | 0.00 | 0.00 | 0.00 | 1018.3 | ||
| 20260902101605 | 0 | 156 | 0.0 | 0.0 | 0.00 | 0.00 | 0.00 | 1018.1 | |
| 20260902100108 | 77 | 163 | 0.0 | 0.0 | 0.00 | 0.00 | 0.00 | 86 | 1018.0 |
| 20260902094552 | 77 | 191 | 0.0 | 0.0 | 0.00 | 0.00 | 0.00 | 88 | 1018.0 |
| 20260902093050 | 77 | 191 | 0.0 | 0.0 | 0.00 | 0.00 | 0.00 | 88 | 1017.9 |
| 20260902091642 | 78 | 191 | 0.0 | 0.0 | 0.00 | 0.00 | 0.00 | 87 | 1017.9 |
| 20260902090141 | 79 | 175 | 0.0 | 1.7 | 0.00 | 0.00 | 0.00 | 86 | 1017.8 |
| 20260902084536 | 79 | 155 | 0.0 | 2.6 | 0.00 | 0.00 | 0.00 | 86 | 1017.7 |
| 20260902083034 | 80 | 156 | 0.9 | 3.5 | 0.00 | 0.00 | 0.00 | 86 | 1017.6 |
| 20260902081529 | 79 | 154 | 0.0 | 0.0 | 0.00 | 0.00 | 0.00 | 87 | 1017.7 |
| 20260902080026 | 80 | 166 | 0.0 | 2.6 | 0.00 | 0.00 | 0.00 | 86 | 1017.6 |
| 20260902074523 | 80 | 166 | 0.9 | 2.6 | 0.00 | 0.00 | 0.00 | 85 | 1017.7 |
| 20260902073021 | 80 | 187 | 1.7 | 4.3 | 0.00 | 0.00 | 0.00 | 86 | 1017.6 |
| 20260902071618 | 81 | 156 | 1.7 | 3.5 | 0.00 | 0.00 | 0.00 | 86 | 1017.8 |
| 20260902070015 | 81 | 161 | 0.0 | 2.6 | 0.00 | 0.00 | 0.00 | 86 | 1017.8 |
| 20260902064512 | 81 | 152 | 1.7 | 3.5 | 0.00 | 0.00 | 0.00 | 86 | 1017.8 |
| 20260902063010 | 81 | 171 | 1.7 | 3.5 | 0.00 | 0.00 | 0.00 | 86 | 1017.9 |
| 20260902061507 | 81 | 166 | 0.9 | 3.5 | 0.00 | 0.00 | 0.00 | 86 | 1017.8 |
| 20260902060006 | 82 | 189 | 1.7 | 4.3 | 0.00 | 0.00 | 0.00 | 86 | 1017.9 |
| 20260902054702 | 82 | 170 | 0.9 | 3.5 | 0.00 | 0.00 | 0.00 | 86 | 1017.8 |
| 20260902053109 | 82 | 133 | 2.6 | 5.2 | 0.00 | 0.00 | 0.00 | 85 | 1017.8 |
| 20260902051654 | 82 | 178 | 2.6 | 3.5 | 0.00 | 0.00 | 0.00 | 85 | 1017.8 |
| 20260902050104 | 83 | 150 | 1.7 | 5.2 | 0.00 | 0.00 | 0.00 | 85 | 1017.7 |